Simultaneous Nadir Overpasses (SNOs) Predictions

Prediction of SNOs between METOP-A and TERRA Satellite Orbit:

Table of predicted SNOs for the next 14.0 days since TLE Epoch: 9/21/2018
Index Date (METOP-A) Time (METOP-A) Lat,Lon (METOP-A) SZA (METOP-A ) Date (TERRA) Time (TERRA) Lat,Lon (TERRA) SZA (TERRA ) Distance(km) Time Diff (sec)
1 09/24/2018 06:59:11 81.43, 124.42 85.08 09/24/2018 07:00:24 81.43, 124.60 85.14 3.02 73
2 09/24/2018 07:49:51 -81.43, -67.94 94.87 09/24/2018 07:49:51 -81.43, -67.88 94.87 0.95 0
3 09/24/2018 08:40:30 81.43, 100.05 85.22 09/24/2018 08:39:17 81.43, 99.89 85.17 2.78 73
4 09/27/2018 02:33:27 81.43,-169.04 86.21 09/27/2018 02:34:38 81.43,-169.06 86.25 0.36 71
5 09/27/2018 03:24:07 -81.43, -1.40 93.74 09/27/2018 03:24:05 -81.42, -1.51 93.76 1.91 2
6 09/29/2018 22:07:44 81.43,-102.91 87.29 09/29/2018 22:08:52 81.42,-102.72 87.35 3.14 68
7 09/29/2018 22:58:24 -81.43, 64.74 92.66 09/29/2018 22:58:19 -81.42, 64.86 92.65 2.05 5
8 10/02/2018 17:41:59 81.43, -36.39 88.41 10/02/2018 17:43:05 81.42, -36.39 88.44 0.95 66
9 10/02/2018 18:32:38 -81.43, 131.66 91.49 10/02/2018 18:32:31 -81.44, 131.60 91.50 1.35 7
10 10/05/2018 13:16:14 81.43, 30.51 89.57 10/05/2018 13:17:18 81.43, 30.32 89.58 3.29 64




NCC Satellite Simultaneous Nadir Overpasses (SNOs) Prediction Service
